Grand Marais, MN

12:17 PM CST on January 22, 2017 (GMT -0600)
Grand Marais-Cook County

Weather History for KCKC - December, 2012

Change the Weather History Date:

Friday, December 21, 2012

  Actual Average Record
Temperature  
Mean Temperature 8 °F -  
Max Temperature 12 °F 16 °F 33 °F (2003)
Min Temperature 3 °F 2 °F -16 °F (1999)
Degree Days  
Heating Degree Days 58    
Moisture  
Dew Point 1 °F    
Average Humidity 75    
Maximum Humidity 85    
Minimum Humidity 62    
Precipitation  
Precipitation 0.00 in - - ()
Sea Level Pressure  
Sea Level Pressure 30.00 in    
Wind  
Wind Speed 15 mph (NW)    
Max Wind Speed 22 mph    
Max Gust Speed 34 mph    
Visibility 8 miles    
Events Snow    
Averages and records for this station are not official NWS values.
T = Trace of Precipitation, MM = Missing Value Source: NWS Daily Summary

Daily Weather History Graph

Daily Weather History Graph

Search for Another Location

Airport or City:

Trip Planner

Search our weather history database for the weather conditions in past years. The results will help you decide how hot, cold, wet, or windy it might be!

Date:

Astronomy

Dec. 21, 2012 Rise Set
Actual Time 7:48 AM CST 4:11 PM CST
Civil Twilight 7:11 AM CST 4:48 PM CST
Nautical Twilight 6:32 AM CST 5:27 PM CST
Astronomical Twilight 5:54 AM CST 6:05 PM CST
Moon 12:15 PM CST (12/21) 1:16 AM CST (12/21)
Length of Visible Light 9h 36m
Length of Day
8h 23m
Waxing Gibbous, 65% of the Moon is Illuminated
Dec 21
Waxing Gibbous
Dec 28
Full
Jan 4
Last Quarter
Jan 11
New
Jan 18
First Quarter

Hourly Weather History & Observations

Time (CST) Temp. Windchill Dew Point Humidity Pressure Visibility Wind Dir Wind Speed Gust Speed Precip Events Conditions
12:14 AM 10.4 °F -6.6 °F 6.8 °F 85% 29.83 in 4.0 mi NNW 16.1 mph 24.2 mph N/A Snow Light Snow
12:34 AM 8.6 °F -8.9 °F 3.2 °F 79% 29.83 in 3.0 mi NNW 16.1 mph 31.1 mph N/A Snow Light Snow
12:53 AM 8.6 °F -8.3 °F 3.2 °F 79% 29.83 in 2.5 mi NNW 15.0 mph 29.9 mph N/A Snow Light Snow
1:13 AM 6.8 °F -12.4 °F 3.2 °F 85% 29.82 in 2.5 mi NNW 18.4 mph 26.5 mph N/A Snow Light Snow
1:34 AM 6.8 °F -11.8 °F 1.4 °F 79% 29.83 in 2.0 mi NNW 17.3 mph 25.3 mph N/A Snow Light Snow
1:54 AM 6.8 °F -13.4 °F 1.4 °F 79% 29.84 in 2.0 mi NNW 20.7 mph 25.3 mph N/A Snow Light Snow
2:13 AM 6.8 °F -13.8 °F 1.4 °F 79% 29.85 in 2.0 mi NNW 21.9 mph 32.2 mph N/A Snow Light Snow
2:33 AM 6.8 °F -12.9 °F 1.4 °F 79% 29.86 in 1.2 mi NNW 19.6 mph 34.5 mph N/A Snow Light Snow
2:54 AM 6.8 °F -13.8 °F 1.4 °F 79% 29.87 in 1.0 mi NNW 21.9 mph 29.9 mph N/A Snow Light Snow
3:13 AM 6.8 °F -12.4 °F 1.4 °F 79% 29.88 in 1.0 mi NNW 18.4 mph 29.9 mph N/A Snow Light Snow
3:34 AM 6.8 °F -13.8 °F 1.4 °F 79% 29.89 in 0.8 mi NNW 21.9 mph 28.8 mph N/A Snow Light Snow
3:53 AM 6.8 °F -13.8 °F 1.4 °F 79% 29.90 in 1.0 mi NNW 21.9 mph 28.8 mph N/A Snow Light Snow
4:13 AM 6.8 °F -11.3 °F 1.4 °F 79% 29.90 in 1.0 mi NNW 16.1 mph 28.8 mph N/A Snow Light Snow
4:34 AM 6.8 °F -12.9 °F 1.4 °F 79% 29.91 in 1.0 mi NNW 19.6 mph 26.5 mph N/A Snow Light Snow
4:53 AM 6.8 °F -13.4 °F 1.4 °F 79% 29.92 in 1.2 mi NNW 20.7 mph 29.9 mph N/A Snow Light Snow
5:13 AM 5.0 °F -15.7 °F -0.4 °F 78% 29.93 in 1.8 mi NNW 20.7 mph 27.6 mph N/A Snow Light Snow
5:34 AM 5.0 °F -13.0 °F -0.4 °F 78% 29.93 in 2.5 mi NW 15.0 mph 26.5 mph N/A Snow Light Snow
5:54 AM 5.0 °F -14.2 °F -0.4 °F 78% 29.95 in 5.0 mi NNW 17.3 mph 27.6 mph N/A Snow Light Snow
6:13 AM 3.2 °F -16.5 °F -0.4 °F 85% 29.96 in 7.0 mi NNW 17.3 mph 23.0 mph N/A Snow Light Snow
6:34 AM 3.2 °F -17.1 °F -2.2 °F 78% 29.95 in 10.0 mi NNW 18.4 mph 24.2 mph N/A   Scattered Clouds
6:53 AM 3.2 °F -13.1 °F -2.2 °F 78% 29.97 in 10.0 mi NW 11.5 mph 20.7 mph N/A   Clear
7:14 AM 3.2 °F -15.3 °F -2.2 °F 78% 29.99 in 10.0 mi NNW 15.0 mph 21.9 mph N/A   Clear
7:34 AM 3.2 °F -13.9 °F -2.2 °F 78% 30.00 in 10.0 mi NW 12.7 mph 24.2 mph N/A   Clear
7:51 AM 3.2 °F -16.5 °F -2.2 °F 78% 30.00 in 10.0 mi NNW 17.3 mph 21.9 mph N/A   Clear
8:14 AM 3.2 °F -16.5 °F -2.2 °F 78% 30.01 in 10.0 mi NNW 17.3 mph 25.3 mph N/A   Clear
8:33 AM 3.2 °F -13.9 °F -2.2 °F 78% 30.02 in 10.0 mi NNW 12.7 mph 25.3 mph N/A   Clear
8:54 AM 3.2 °F -16.5 °F -2.2 °F 78% 30.02 in 10.0 mi NNW 17.3 mph 24.2 mph N/A   Clear
9:13 AM 3.2 °F -15.9 °F -2.2 °F 78% 30.03 in 10.0 mi NNW 16.1 mph 23.0 mph N/A   Clear
9:33 AM 5.0 °F -13.6 °F -2.2 °F 72% 30.04 in 10.0 mi NNW 16.1 mph 23.0 mph N/A   Clear
9:54 AM 5.0 °F -13.6 °F -2.2 °F 72% 30.05 in 10.0 mi NW 16.1 mph 20.7 mph N/A   Clear
10:13 AM 6.8 °F -10.7 °F -0.4 °F 72% 30.05 in 10.0 mi NNW 15.0 mph 21.9 mph N/A   Clear
10:33 AM 6.8 °F -7.8 °F -0.4 °F 72% 30.05 in 10.0 mi NW 10.4 mph 18.4 mph N/A   Clear
10:54 AM 8.6 °F -6.3 °F -0.4 °F 67% 30.05 in 10.0 mi NNW 11.5 mph 20.7 mph N/A   Clear
11:13 AM 8.6 °F -5.5 °F 1.4 °F 73% 30.06 in 10.0 mi NW 10.4 mph 18.4 mph N/A   Clear
11:34 AM 10.4 °F -4.1 °F 3.2 °F 73% 30.07 in 7.0 mi NW 11.5 mph 18.4 mph N/A Snow Light Snow
11:53 AM 10.4 °F -6.0 °F 1.4 °F 67% 30.06 in 10.0 mi NNW 15.0 mph 19.6 mph N/A   Scattered Clouds
12:13 PM 10.4 °F -3.3 °F 1.4 °F 67% 30.05 in 10.0 mi NW 10.4 mph 20.7 mph N/A   Clear
12:34 PM 12.2 °F -3.1 °F 1.4 °F 62% 30.05 in 10.0 mi NW 13.8 mph 19.6 mph N/A   Clear
12:53 PM 12.2 °F -3.1 °F 1.4 °F 62% 30.05 in 10.0 mi NNW 13.8 mph - N/A   Clear
1:13 PM 12.2 °F -1.8 °F 1.4 °F 62% 30.05 in 10.0 mi NW 11.5 mph 18.4 mph N/A   Clear
1:34 PM 12.2 °F -2.5 °F 1.4 °F 62% 30.05 in 10.0 mi NW 12.7 mph 18.4 mph N/A   Clear
1:53 PM 12.2 °F -1.0 °F 1.4 °F 62% 30.05 in 10.0 mi NW 10.4 mph 16.1 mph N/A   Clear
2:13 PM 12.2 °F -2.5 °F 1.4 °F 62% 30.05 in 10.0 mi NW 12.7 mph 19.6 mph N/A   Clear
2:34 PM 12.2 °F -1.0 °F 1.4 °F 62% 30.05 in 10.0 mi NW 10.4 mph 17.3 mph N/A   Clear
2:54 PM 10.4 °F -4.1 °F 3.2 °F 73% 30.05 in 10.0 mi NW 11.5 mph 17.3 mph N/A   Clear
3:14 PM 10.4 °F -4.1 °F 3.2 °F 73% 30.06 in 10.0 mi NW 11.5 mph 17.3 mph N/A   Clear
3:33 PM 10.4 °F -2.4 °F 3.2 °F 73% 30.06 in 10.0 mi NW 9.2 mph - N/A   Clear
3:54 PM 10.4 °F -2.4 °F 1.4 °F 67% 30.06 in 10.0 mi NW 9.2 mph - N/A   Clear
4:13 PM 8.6 °F -4.7 °F 1.4 °F 73% 30.07 in 10.0 mi NW 9.2 mph - N/A   Clear
4:33 PM 8.6 °F -4.7 °F 1.4 °F 73% 30.06 in 10.0 mi NW 9.2 mph - N/A   Clear
4:54 PM 6.8 °F -8.6 °F 1.4 °F 79% 30.08 in 10.0 mi NW 11.5 mph - N/A   Clear
5:14 PM 6.8 °F -7.8 °F 1.4 °F 79% 30.08 in 10.0 mi NW 10.4 mph 16.1 mph N/A   Clear
5:33 PM 6.8 °F -7.8 °F 1.4 °F 79% 30.07 in 10.0 mi NW 10.4 mph 16.1 mph N/A   Clear
5:54 PM 6.8 °F -5.9 °F 1.4 °F 79% 30.06 in 10.0 mi NW 8.1 mph - N/A   Scattered Clouds
6:14 PM 6.8 °F -6.9 °F 1.4 °F 79% 30.07 in 10.0 mi NW 9.2 mph - N/A   Scattered Clouds
6:33 PM 6.8 °F -7.8 °F 1.4 °F 79% 30.07 in 10.0 mi NW 10.4 mph 16.1 mph N/A   Clear
6:53 PM 6.8 °F -5.9 °F 1.4 °F 79% 30.06 in 10.0 mi NW 8.1 mph - N/A   Clear
7:14 PM 6.8 °F -8.6 °F 1.4 °F 79% 30.06 in 10.0 mi NW 11.5 mph 17.3 mph N/A   Clear
7:34 PM 6.8 °F -7.8 °F -0.4 °F 72% 30.06 in 10.0 mi NW 10.4 mph - N/A   Clear
7:53 PM 6.8 °F -6.9 °F -0.4 °F 72% 30.06 in 10.0 mi NW 9.2 mph - N/A   Clear
8:13 PM 6.8 °F -8.6 °F -0.4 °F 72% 30.06 in 10.0 mi NW 11.5 mph 17.3 mph N/A   Clear
8:33 PM 5.0 °F -8.1 °F -0.4 °F 78% 30.06 in 10.0 mi NW 8.1 mph - N/A   Clear
8:54 PM 5.0 °F -9.1 °F -0.4 °F 78% 30.06 in 10.0 mi NW 9.2 mph - N/A   Clear
9:13 PM 6.8 °F -5.9 °F -0.4 °F 72% 30.06 in 10.0 mi NW 8.1 mph - N/A   Clear
9:34 PM 6.8 °F -6.9 °F -0.4 °F 72% 30.06 in 10.0 mi NW 9.2 mph - N/A   Scattered Clouds
9:53 PM 6.8 °F -5.9 °F 1.4 °F 79% 30.05 in 10.0 mi NNW 8.1 mph - N/A   Scattered Clouds
10:14 PM 6.8 °F -7.8 °F 1.4 °F 79% 30.04 in 10.0 mi NNW 10.4 mph - N/A   Mostly Cloudy
10:33 PM 6.8 °F -6.9 °F 1.4 °F 79% 30.03 in 10.0 mi NNW 9.2 mph - N/A   Mostly Cloudy
10:53 PM 8.6 °F -3.7 °F 1.4 °F 73% 30.04 in 10.0 mi NW 8.1 mph - N/A   Mostly Cloudy
11:14 PM 8.6 °F -2.6 °F 1.4 °F 73% 30.03 in 10.0 mi NW 6.9 mph - N/A   Overcast
11:33 PM 8.6 °F 0.1 °F 1.4 °F 73% 30.03 in 10.0 mi WNW 4.6 mph - N/A   Scattered Clouds
11:53 PM 8.6 °F -3.7 °F 3.2 °F 79% 30.02 in 10.0 mi WNW 8.1 mph - N/A   Clear